Погода в Бирофельде

Россия / Еврейская автономная область     48°25′13″N   132°47′49″E
темп.,
°C
ветер,
м/с
пор.,
м/с
влажн.,
%
обл.,
%
осадки,
мм/ч
давл.,
гПа
погр.,
м
22 апреля, чт
чт2201:00+11юв22330 0.0 102011
04:00+9всв22370 0.0 102012
07:00+8всв22420 0.0 102118
10:00+14в34315 0.0 1021381
13:00+21ююв56225 0.0 10201212
16:00+24ююз672198 0.0 10171658
19:00+23ююз34254 0.0 101781
22:00+18ююз223387 0.0 101811
23 апреля, пт
пт2301:00+16зюз2238100 0.0 101911
04:00+14зюз2241100 0.0 101911
07:00+14зюз2244100 0.0 101915
10:00+17юз2236100 0.0 1019246
13:00+20з4532100 0.0 1019948
16:00+20зсз6735100 0.0 10181786
19:00+15зсз111349100 0.0 1019759
22:00+11сз6942100 0.0 1021658
24 апреля, сб
сб2401:00+9зсз463094 0.0 1021340
04:00+8сз4631100 0.0 1022490
07:00+5зсз47385 0.0 1023273
10:00+8ссз45240 0.0 10231223
13:00+11зсз45170 0.0 10201968
16:00+13сз1010190 0.0 10182526
19:00+11сз913215 0.0 10192955
22:00+8сз712240 0.0 1019578
25 апреля, вс
вс2501:00+6зсз49310 0.0 1019225
04:00+4зсз35384 0.0 1018112
07:00+4сз812400 0.0 10181198
10:00+6ссз810240 0.0 10181928
13:00+9ссз58186 0.0 10172772
16:00+12ссз79145 0.0 10163175
19:00+11ссз68150 0.0 10162918
22:00+7ссз33235 0.0 101928
26 апреля, пн
пн2601:00+5в22285 0.0 102019
04:00+3всв22367 0.0 102014
07:00+2всв235243 0.0 102186
10:00+7юв2333100 0.0 1021560
13:00+12ю4522100 0.0 10171533
16:00+14ю4621100 0.0 10151816
19:00+14ююв3525100 0.0 1013612
22:00+12юв3729100 0.0 1015197